This demonstration page uses our WeatherBlox Daily Observations layout. Learn more.

Left ArrowRight Arrow

36.17497, -115.13722

Hourly Observations for October 7, 2019

Temp ( °F °C ) Dew Point ( °F °C ) Humidity (%) Winds ( mph kmh ) Pressure ( in mb ) Visibility ( mi km ) Precip ( " mm )
12:53 am 00:53 Clear 69 20.6 25 -3.9 19 19 WNW 5 7 30.1 1019 10 16.0934 N/A
1:53 am 01:53 Clear 63 17.2 25 -3.9 24 24 WNW 3 6 30.11 1020 10 16.0934 N/A
2:53 am 02:53 Clear 63 17.2 26 -3.3 25 25 WNW 8 13 30.09 1019 10 16.0934 N/A
3:53 am 03:53 Clear 65 18.3 21 -6.1 19 19 WNW 8 13 30.08 1019 10 16.0934 N/A
4:53 am 04:53 Clear 62 16.7 25 -3.9 24 24 W 3 6 30.09 1019 10 16.0934 N/A
5:53 am 05:53 Clear 62 16.7 25 -3.9 24 24 WNW 8 13 30.09 1019 10 16.0934 N/A
6:53 am 06:53 Sunny 61 16.1 24 -4.4 24 24 WNW 8 13 30.1 1019 10 16.0934 N/A
7:53 am 07:53 Sunny 64 17.8 22 -5.6 20 20 W 5 7 30.11 1020 10 16.0934 N/A
8:53 am 08:53 Sunny 69 20.6 21 -6.1 16 16 NW 5 7 30.12 1020 10 16.0934 N/A
9:53 am 09:53 Sunny 73 22.8 23 -5 15 15 N N/A 30.12 1020 10 16.0934 N/A
10:53 am 10:53 Sunny 76 24.4 22 -5.6 13 13 N N/A 30.09 1019 10 16.0934 N/A
11:53 am 11:53 Sunny 79 26.1 20 -6.7 11 11 ENE 3 6 30.06 1018 10 16.0934 N/A
12:53 pm 12:53 Sunny 81 27.2 18 -7.8 9 9 SSE 5 7 30.03 1017 10 16.0934 N/A
1:53 pm 13:53 Sunny 83 28.3 15 -9.4 8 8 ESE 6 9 30 1016 10 16.0934 N/A
2:53 pm 14:53 Sunny 84 28.9 15 -9.4 7 7 VRB 3 6 29.96 1015 10 16.0934 N/A
3:53 pm 15:53 Sunny 85 29.4 15 -9.4 7 7 N N/A 29.94 1014 10 16.0934 N/A
4:53 pm 16:53 Sunny 86 30 15 -9.4 7 7 N N/A 29.93 1013 10 16.0934 N/A
5:53 pm 17:53 Sunny 84 28.9 15 -9.4 7 7 S 3 6 29.91 1013 10 16.0934 N/A
6:53 pm 18:53 Clear 82 27.8 19 -7.2 9 9 SW 3 6 29.91 1013 10 16.0934 N/A
7:53 pm 19:53 Clear 77 25 24 -4.4 14 14 W 5 7 29.91 1013 10 16.0934 N/A
8:53 pm 20:53 Clear 73 22.8 26 -3.3 17 17 NW 5 7 29.92 1013 10 16.0934 N/A
9:53 pm 21:53 Clear 70 21.1 23 -5 17 17 NW 6 9 29.91 1013 10 16.0934 N/A
10:53 pm 22:53 Clear 68 20 24 -4.4 19 19 WNW 5 7 29.91 1013 10 16.0934 N/A
11:53 pm 23:53 Clear 66 18.9 26 -3.3 22 22 WNW 3 6 29.9 1013 10 16.0934 N/A

Powered by AerisWeather